Location: ??????
(38.0131°N, 23.7723°E)
Time: 16:59:18
(UTC+00:00)

METEOR 2-5 DEB - Pass Details

Date: 18 August 2022
Orbit: 809 x 849 km, 81.2° (Epoch: 29 September)

Event Time Altitude Azimuth Distance (km) Brightness Sun altitude
Rises 18:39:49 0° 355° (N) 3,348 ? -16.1°
Reaches altitude 10° 18:42:17 10° 0° (N) 2,408 ? -16.6°
Maximum altitude 18:47:36 55° 78° (ENE) 973 ? -17.4°
Enters shadow 18:50:10 29° 142° (SE) 1,439 ? -17.9°
